DELTA 1 DEB, 10658

Orbit data source: Space-Track

DELTA 1 DEB, 10658 is space debris in SSO originally from a launch on Thu, 29 Jul 1976 UTC launched from the Air Force Western Test Range (AFWTR). Debris objects in space refer to the collection of defunct objects orbiting the Earth. Examples of debris include non-operational satellites, rocket bodies, and fragments generated from explosions, collisions, or faulty payload assembly.

Loading next visibility...
Identifier
10658, 1976-077U
Orbit
SSO
Country
Flag of USUS
Related business
Manufacturer
Unknown
Mission
Spacecraft
Bus & Motor
Unknown
Mass
Unknown
Launch date (UTC)
1976-07-29 (50 years ago)
Launch vehicle
Unknown
Launch site
Air Force Western Test Range (AFWTR)
Object type
Payload
Rocket body
Debris
Shape & HBR
Unknown shape, 0.7 m
Radar Cross Section
Medium (>0.1 m² and <1 m²)

Expand to show TLE details & history
Last TLE update: 5 hours ago

TLE from 5 hours ago
0 DELTA 1 DEB
1 10658U 76077U   26104.96954920 -.00000037  00000-0  74858-4 0  9991
2 10658 102.4858  91.8940 0056979 123.1326 247.2948 12.29957749232159
Epoch: 2026-04-14T23:16Z
TLE epoch observation values (Epoch: 2026-04-14T23:16:09.050Z)
Latitude
9.54235°
Longitude
-102.40478°
Altitude
1,568.91 km
Speed
7.076 km/s
True Right ascension
05h 59m 05s
True Declination
9° 29' 31"
Sunlit
Object was in daylight at epoch
Visualization orbit readout
Latitude
Unknown
Longitude
Unknown
Altitude
Unknown
Speed
Unknown
Apparent Right ascension
Unknown
Apparent Declination
Unknown
Sunlit
N/A
Visualization observer readout
Local Sidereal Time
10:28:01
Azimuth
Unknown
Elevation
Unknown
Doppler factor
Unknown
Orbital elements
Apogee altitude
1,592.237 km
Perigee altitude
1,501.923 km
Semi-major axis
7,925.217 km
Eccentricity
0.0057
Inclination
102.4858°
RAAN
91.894°
Arg. of periapsis
123.1326°
True anomaly
246.69413°
Mean anomaly
247.2948°
Eccentric anomaly
246.9943°
Mean motion
3.07628 °/min
Orbital period
117.02 mins
BSTAR
0.000074858
Loading maneuver chart data...
Computing Atmospheric mass density...
Loading historical data...
Loading historical data...
Loading historical data...
Loading historical data...
Loading historical data...
Loading historical data...
Loading historical data...

Documentation

Showing up to 5 results
|